カタログに戻る

STARLINK-30101

運用中通信VLEO
NORAD 56301·PAYLOAD·🇺🇸 United States

打ち上げ Apr 19, 2023 から Cape Canaveral Space Force Station

Loading…

次のパス (今後24時間)

TLE

最新Source: CelesTrak SupGP

元期: Sep 14, 2026, 21:54 UTC

1 56301C 23056R   26257.91298611  .00019422  00000+0  77773-3 0  2578
2 56301  43.0000 218.3704 0001154 247.5065  31.0778 15.24245916    15

AllMySatでSTARLINK-30101をリアルタイム追跡

Download on the App Store